Home   Weather   Spa   Past weeks

Flag for Belgium Past Weather in Spa, Belgium — Yesterday and Last 2 Weeks

Now
52 °F

Clear.


Feels Like: 51 °F
Forecast: 42 / 53 °F
Wind: 5 mph from South

Location: Spa / La Sauveniere

Current Time: May 1, 2017 at 4:24:18 am

Latest Report: May 1, 2017 at 3:00 am


Visibility: 31 mi

Pressure: 29.66 "Hg

Humidity: 56%

Dew Point: 37 °F

Location of SpaLocation

Past Weather in Spa — Graph

°F

Spa Temperature Yesterday

Maximum temperature yesterday: 62 °F (at 4:00 pm)
Minimum temperature yesterday: 41 °F (at 6:00 am)
Average temperature yesterday: 51 °F

High & Low Weather Summary for the Past Weeks

 TemperatureHumidityPressure
High62 °F (Apr 30, 4:00 pm)98% (Apr 17, 9:00 am)30.64 "Hg (Apr 17, 9:00 am)
Low29 °F (Apr 19, 7:00 am)29% (Apr 30, 6:00 pm)29.65 "Hg (May 1, 12:00 am)
Average41 °F70%30.16 "Hg
* Reported Apr 16 2:00 am — May 1 2:00 am, Spa, Weather by CustomWeather, © 2017

Note: Actual official high and low records may vary slightly from our data, if they occured in-between our weather recording intervals... More about our weather records

Advertising

Spa Weather History for the Previous 24 Hours

Scroll right to see more
 ConditionsComfort  
Time TempWeatherWind HumidityBarometerVisibility
2:00 am
Mon, May 1
53 °FClear.7 mph45%29.65 "Hg28 mi
1:00 am53 °FClear.6 mph45%29.65 "Hg28 mi
12:00 am54 °FClear.7 mph42%29.65 "Hg28 mi
11:00 pm
Sun, Apr 30
54 °FClear.7 mph39%29.65 "Hg28 mi
10:00 pm55 °FClear.7 mph37%29.65 "Hg28 mi
9:00 pm56 °FClear.6 mph37%29.66 "Hg28 mi
7:00 pm61 °FSunny.7 mph31%29.65 "Hg25 mi
6:00 pm62 °FSunny.7 mph29%29.66 "Hg17 mi
5:00 pm61 °FSunny.8 mph30%29.69 "Hg22 mi
4:00 pm62 °FSunny.8 mph32%29.70 "Hg19 mi
3:00 pm59 °FSunny.6 mph34%29.73 "Hg19 mi
2:00 pm59 °FSunny.8 mph34%29.75 "Hg25 mi
1:00 pm58 °FSunny.8 mph35%29.78 "Hg18 mi
12:00 pm56 °FSunny.9 mph36%29.81 "Hg19 mi
11:00 am54 °FSunny.8 mph37%29.84 "Hg19 mi
10:00 am51 °FSunny.8 mph42%29.87 "Hg22 mi
9:00 am46 °FSunny.8 mph52%29.89 "Hg22 mi
8:00 am43 °FSunny.7 mph59%29.91 "Hg19 mi
7:00 am42 °FSunny.8 mph60%29.92 "Hg25 mi
6:00 am41 °FClear.6 mph60%29.94 "Hg25 mi
5:00 am41 °FClear.7 mph59%29.94 "Hg28 mi
4:00 am42 °FClear.6 mph59%29.95 "Hg28 mi
Weather by CustomWeather, © 2017

See weather overviewHow to use our weather pages